TimeEST,TemperatureF,Dew PointF,Humidity,Sea Level PressureIn,VisibilityMPH,Wind Direction,Wind SpeedMPH,Gust SpeedMPH,PrecipitationIn,Events,Conditions,WindDirDegrees,DateUTC
12:53 AM,27.0,24.1,89,30.12,5.0,WNW,11.5,-,N/A,,Overcast,290,2012-12-30 05:53:00
1:23 AM,26.6,24.8,93,30.10,6.0,WNW,13.8,-,N/A,,Overcast,300,2012-12-30 06:23:00
1:53 AM,27.0,23.0,85,30.15,6.0,WNW,12.7,19.6,N/A,,Overcast,290,2012-12-30 06:53:00
2:53 AM,26.1,21.9,84,30.20,6.0,WNW,13.8,19.6,N/A,,Overcast,290,2012-12-30 07:53:00
3:53 AM,25.0,21.9,88,30.23,6.0,WNW,11.5,19.6,N/A,,Overcast,290,2012-12-30 08:53:00
4:37 AM,24.8,21.2,86,30.20,6.0,WNW,10.4,20.7,N/A,,Overcast,290,2012-12-30 09:37:00
4:53 AM,24.1,21.9,91,30.25,6.0,West,12.7,20.7,N/A,,Overcast,280,2012-12-30 09:53:00
5:53 AM,24.1,19.9,84,30.28,7.0,West,9.2,-,N/A,,Overcast,280,2012-12-30 10:53:00
6:53 AM,23.0,19.9,88,30.32,6.0,West,11.5,-,N/A,,Overcast,280,2012-12-30 11:53:00
7:53 AM,23.0,19.9,88,30.35,6.0,West,11.5,-,N/A,,Overcast,260,2012-12-30 12:53:00
8:53 AM,21.9,18.0,85,30.37,5.0,West,11.5,-,N/A,,Overcast,280,2012-12-30 13:53:00
9:28 AM,21.2,19.4,93,30.34,4.0,West,11.5,-,N/A,,Overcast,270,2012-12-30 14:28:00
9:53 AM,21.0,18.0,88,30.40,4.0,West,12.7,-,N/A,,Overcast,270,2012-12-30 14:53:00
10:53 AM,21.0,17.1,85,30.42,5.0,West,8.1,-,N/A,,Overcast,270,2012-12-30 15:53:00
11:31 AM,19.4,15.8,86,30.36,6.0,West,11.5,-,N/A,,Overcast,270,2012-12-30 16:31:00
11:53 AM,19.9,15.1,81,30.42,8.0,West,10.4,17.3,N/A,,Overcast,270,2012-12-30 16:53:00
12:53 PM,21.0,16.0,81,30.40,8.0,West,9.2,-,N/A,,Overcast,260,2012-12-30 17:53:00
1:53 PM,21.0,15.1,78,30.38,9.0,WSW,9.2,-,N/A,,Mostly Cloudy,240,2012-12-30 18:53:00
2:06 PM,21.2,15.8,80,30.33,9.0,WSW,5.8,-,N/A,,Scattered Clouds,240,2012-12-30 19:06:00
2:53 PM,21.9,15.1,75,30.39,10.0,SW,15.0,-,N/A,,Clear,220,2012-12-30 19:53:00
3:53 PM,23.0,16.0,74,30.39,10.0,SW,10.4,-,N/A,,Clear,230,2012-12-30 20:53:00
4:53 PM,21.0,14.0,74,30.38,10.0,SSW,8.1,-,N/A,,Clear,200,2012-12-30 21:53:00
5:53 PM,18.0,12.0,78,30.37,10.0,SSW,8.1,-,N/A,,Clear,200,2012-12-30 22:53:00
6:53 PM,18.0,12.9,81,30.39,10.0,SSW,9.2,-,N/A,,Clear,210,2012-12-30 23:53:00
7:53 PM,19.0,12.9,77,30.39,10.0,South,11.5,-,N/A,,Clear,190,2012-12-31 00:53:00
8:53 PM,19.9,15.1,81,30.38,10.0,SSW,13.8,-,N/A,,Clear,200,2012-12-31 01:53:00
9:53 PM,19.9,15.1,81,30.36,10.0,SSW,10.4,-,N/A,,Clear,200,2012-12-31 02:53:00
10:53 PM,19.0,14.0,81,30.34,10.0,South,11.5,-,N/A,,Clear,190,2012-12-31 03:53:00
11:53 PM,17.1,14.0,88,30.34,9.0,SSW,9.2,-,N/A,,Clear,200,2012-12-31 04:53:00